Home   Weather   Uroševac   Past weeks

Flag for Kosovo Past Weather in Uroševac, Kosovo — Yesterday and Last 2 Weeks

Now
59 °F

Sunny.


Feels Like: 59 °F
Forecast: 42 / 74 °F
Wind: No wind

Location: Skopje-Petrovec

Current Time: Sep 30, 2016 at 10:31:42 AM

Latest Report: Sep 30, 2016 at 10:00 AM


Visibility: 10 mi

Pressure: 30.24 "Hg (28.22 "Hg at 582m altitude)

Humidity: 63%

Dew Point: 46 °F

Location of UroševacLocation

Past Weather in Uroševac — Graph

°F

Uroševac Temperature Yesterday

Maximum temperature yesterday: 77 °F (at 3:30 PM)
Minimum temperature yesterday: 41 °F (at 6:00 AM)
Average temperature yesterday: 57 °F

High & Low Weather Summary for the Past Weeks

 TemperatureHumidityPressure
High88 °F (Sep 17, 4:00 PM)100% (Sep 19, 6:30 AM)30.45 "Hg (Sep 19, 6:30 AM)
Low39 °F (Sep 23, 6:30 AM)29% (Sep 23, 3:30 PM)29.65 "Hg (Sep 19, 3:30 PM)
Average61 °F67%30.10 "Hg
* Reported Sep 15 8:00 AM — Sep 30 8:30 AM, Uroševac, Weather by CustomWeather, © 2016

Note: Actual official high and low records may vary slightly from our data, if they occured in-between our weather recording intervals... More about our weather records

Advertising

Uroševac Weather History for the Previous 24 Hours

Scroll right to see more
 ConditionsComfort  
Time TempWeatherWind HumidityBarometerVisibility
8:30 AM
Fri, Sep 30
50 °FSunny.No wind82%30.24 "Hg10 mi
8:00 AM50 °FSunny.No wind82%30.24 "Hg10 mi
7:30 AM45 °FSunny.1 mph87%30.24 "Hg10 mi
7:00 AM43 °FSunny.1 mph93%30.24 "Hg10 mi
6:30 AM41 °FSunny.No wind93%30.24 "Hg10 mi
6:00 AM41 °FClear.No wind93%30.24 "Hg10 mi
5:30 AM43 °FClear.2 mph93%30.24 "Hg10 mi
5:00 AM43 °FClear.1 mph93%30.24 "Hg10 mi
4:30 AM45 °FClear.1 mph87%30.24 "Hg10 mi
4:00 AM45 °FClear.1 mph87%30.24 "Hg10 mi
3:30 AM46 °FClear.1 mph87%30.24 "Hg10 mi
3:00 AM45 °FClear.2 mph87%30.24 "Hg10 mi
2:00 AM46 °FClear.2 mph87%30.24 "Hg10 mi
1:30 AM46 °FClear.2 mph87%30.24 "Hg10 mi
1:00 AM46 °FClear.1 mph87%30.24 "Hg10 mi
12:30 AM48 °FClear.No wind87%30.24 "Hg10 mi
12:00 AM50 °FClear.1 mph82%30.24 "Hg10 mi
11:30 PM
Thu, Sep 29
50 °FClear.2 mph82%30.24 "Hg10 mi
11:00 PM50 °FClear.1 mph82%30.24 "Hg10 mi
10:30 PM54 °FClear.2 mph77%30.24 "Hg10 mi
10:00 PM54 °FClear.2 mph77%30.24 "Hg10 mi
9:30 PM54 °FClear.1 mph77%30.24 "Hg10 mi
9:00 PM55 °FClear.5 mph72%30.24 "Hg10 mi
8:30 PM55 °FClear.2 mph77%30.21 "Hg10 mi
8:00 PM57 °FClear.2 mph72%30.21 "Hg10 mi
7:30 PM61 °FClear.2 mph68%30.21 "Hg10 mi
7:00 PM63 °FClear.No wind64%30.21 "Hg10 mi
6:30 PM66 °FClear.2 mph56%30.21 "Hg10 mi
6:00 PM70 °FSunny.No wind53%30.21 "Hg10 mi
5:30 PM75 °FSunny.2 mph41%30.21 "Hg10 mi
5:00 PM75 °FSunny.2 mph36%30.21 "Hg10 mi
4:30 PM77 °FSunny.3 mph34%30.21 "Hg10 mi
4:00 PM77 °FSunny.3 mph34%30.24 "Hg10 mi
3:30 PM77 °FSunny.No wind34%30.24 "Hg10 mi
3:00 PM75 °FSunny.No wind36%30.27 "Hg10 mi
2:30 PM75 °FSunny.2 mph34%30.27 "Hg10 mi
2:00 PM73 °FSunny.No wind36%30.27 "Hg10 mi
1:30 PM73 °FSunny.No wind36%30.30 "Hg10 mi
1:00 PM70 °FSunny.2 mph40%30.30 "Hg10 mi
12:30 PM68 °FSunny.No wind40%30.33 "Hg10 mi
12:00 PM66 °FSunny.No wind49%30.33 "Hg10 mi
11:30 AM64 °FSunny.No wind52%30.33 "Hg10 mi
11:00 AM63 °FSunny.No wind59%30.36 "Hg10 mi
10:30 AM59 °FSunny.No wind63%30.36 "Hg10 mi
10:00 AM57 °FSunny.No wind67%30.39 "Hg10 mi
Weather by CustomWeather, © 2016

See weather overviewHow to use our weather pages